EST,Max TemperatureF,Mean TemperatureF,Min TemperatureF,Max Dew PointF,MeanDew PointF,Min DewpointF,Max Humidity, Mean Humidity, Min Humidity, Max Sea Level PressureIn, Mean Sea Level PressureIn, Min Sea Level PressureIn, Max VisibilityMiles, Mean VisibilityMiles, Min VisibilityMiles, Max Wind SpeedMPH, Mean Wind SpeedMPH, Max Gust SpeedMPH,PrecipitationIn, CloudCover, Events, WindDirDegrees
2013-2-1,27,22,16,18,10,1,74,58,42,30.09,29.75,29.58,10,6,1,10,8,15,0.01,7,Snow,290
2013-2-2,24,15,6,12,4,-2,76,58,40,30.22,30.11,30.03,10,10,8,12,2,16,0.00,5,,230
2013-2-3,28,19,9,12,9,6,83,63,42,30.04,29.88,29.75,10,10,10,6,1,9,0.00,5,,289
2013-2-4,25,20,15,11,3,-2,67,51,35,29.92,29.81,29.71,10,10,9,31,9,39,T,4,,273
2013-2-5,28,15,2,10,3,-3,86,60,33,30.04,29.96,29.93,10,10,7,10,1,13,0.00,2,,60
2013-2-6,32,25,17,21,11,-5,91,63,34,30.35,30.04,29.91,10,8,2,20,5,28,T,5,Snow,298
2013-2-7,23,16,8,0,-3,-7,58,46,34,30.56,30.47,30.34,10,10,10,12,2,17,0.00,3,,48
2013-2-8,22,21,19,16,11,-3,84,60,36,30.45,30.16,29.84,10,4,0,13,4,17,0.42,8,Fog-Snow,57
2013-2-9,22,16,10,15,4,-6,84,65,45,30.31,29.99,29.82,10,5,0,23,9,41,0.24,4,Fog-Snow,337
2013-2-10,32,12,-9,9,-1,-13,82,55,27,30.50,30.40,30.32,10,10,8,3,0,3,0.00,0,,5
2013-2-11,32,20,7,30,22,3,100,81,62,30.32,29.87,29.61,10,3,0,7,0,9,0.12,7,Fog-Rain-Snow,182
2013-2-12,39,35,31,30,24,21,100,74,48,29.87,29.71,29.61,10,8,1,24,10,32,0.02,7,Snow,266
2013-2-13,37,31,24,21,18,15,74,57,40,29.86,29.81,29.76,10,10,8,12,1,16,0.00,6,,277
2013-2-14,39,30,20,19,18,16,84,64,44,29.98,29.89,29.74,10,9,4,14,2,,0.00,4,,341
2013-2-15,46,33,20,25,20,18,84,62,39,29.97,29.94,29.89,10,9,5,18,3,29,T,3,,261
2013-2-16,34,28,21,24,14,0,92,64,36,29.99,29.93,29.84,10,9,3,13,5,23,T,6,Snow,316
2013-2-17,21,16,10,1,-2,-5,51,45,39,29.80,29.68,29.57,10,10,10,23,11,36,0.00,7,,320
2013-2-18,27,17,7,-1,-5,-7,55,40,25,30.15,30.03,29.77,10,10,10,26,10,37,0.00,0,,299
2013-2-19,38,24,9,31,18,0,89,64,39,30.18,29.83,29.55,10,6,1,9,1,13,0.06,5,Rain,270
2013-2-20,33,28,22,31,18,10,92,71,50,29.78,29.65,29.55,10,7,0,20,11,33,T,7,Fog-Snow,263
2013-2-21,27,22,16,14,8,1,65,55,45,30.33,30.00,29.78,10,10,8,18,9,30,T,5,Snow,303
2013-2-22,37,30,22,19,16,12,69,55,40,30.43,30.34,30.28,10,10,10,17,2,29,0.00,3,,351
2013-2-23,32,31,30,30,27,18,100,79,58,30.29,30.07,29.93,10,3,0,12,2,15,0.15,8,Fog-Snow,158
2013-2-24,35,33,30,32,29,26,100,91,82,29.94,29.83,29.75,10,4,1,8,0,10,0.30,8,Snow,267
2013-2-25,35,31,26,31,28,24,100,85,70,30.25,30.14,29.97,10,4,0,7,1,9,0.00,8,Fog,340
2013-2-26,39,33,27,29,27,24,100,82,64,30.35,30.27,30.15,10,4,0,10,1,15,0.00,7,Fog,118
2013-2-27,36,34,31,36,31,25,100,85,69,30.14,29.86,29.65,10,4,0,18,5,24,0.45,8,Fog-Rain-Snow,51
2013-2-28,40,35,29,34,30,28,100,88,76,29.64,29.59,29.56,10,5,0,5,0,6,0.01,8,Fog-Rain-Snow,215